Weather History for PADQ - October, 2014

Change the Weather History Date:

Thursday, October 16, 2014

  Actual Average Record
Temperature  
Mean Temperature 40 °F 40 °F  
Max Temperature 45 °F 46 °F 58 °F (1982)
Min Temperature 34 °F 34 °F 22 °F (1970)
Degree Days  
Heating Degree Days 25 25  
Month to date heating degree days 380 361  
Since 1 July heating degree days 1251 1459  
Cooling Degree Days 0    
Month to date cooling degree days 0  
Year to date cooling degree days 4  
Moisture  
Dew Point 37 °F    
Average Humidity 0    
Maximum Humidity 0    
Minimum Humidity 0    
Precipitation  
Precipitation 0.01 in 0.26 in 3.07 in (1978)
Month to date precipitation 4.75 4.39  
Year to date precipitation 61.50 58.53  
Snow  
Snow 0.00 in 0.00 in 1.10 in (2001)
Month to date snowfall 0.2 0.2  
Since 1 July snowfall 0.2 0.2  
Since 1 September snowfall 0.2 0.2  
Snow Depth 0.00 in    
Sea Level Pressure  
Sea Level Pressure 29.45 in    
Wind  
Wind Speed 3 mph (NNE)    
Max Wind Speed 9 mph    
Max Gust Speed 10 mph    
Visibility 10 miles    
Events Rain    
T = Trace of Precipitation, MM = Missing Value Source: NWS Daily Summary

Daily Weather History Graph

Daily Weather History Graph

Search for Another Location

Airport or City:

Trip Planner

Search our weather history database for the weather conditions in past years. The results will help you decide how hot, cold, wet, or windy it might be!

Date:

Astronomy

Oct. 16, 2014 Rise Set
Actual Time 8:47 AM AKDT 7:02 PM AKDT
Civil Twilight 8:07 AM AKDT 7:42 PM AKDT
Nautical Twilight 7:22 AM AKDT 8:27 PM AKDT
Astronomical Twilight 6:37 AM AKDT 9:12 PM AKDT
Moon 12:50 AM AKDT (10/16) 4:30 PM AKDT (10/16)
Length of Visible Light 11h 34m
Length of Day
10h 15m
Last Quarter, 40% of the Moon is Illuminated
Oct 16
Last Quarter
Oct 23
New
Oct 30
First Quarter
Nov 6
Full
Nov 14
Last Quarter

Hourly Weather History & Observations

Time (AKDT) Temp. Windchill Dew Point Humidity Pressure Visibility Wind Dir Wind Speed Gust Speed Precip Events Conditions
12:53 AM 42.1 °F 39.2 °F 39.0 °F 89% 29.47 in 10.0 mi NW 4.6 mph - N/A   Overcast
1:53 AM 42.1 °F 37.7 °F 37.9 °F 85% 29.47 in 10.0 mi NW 6.9 mph - N/A   Overcast
2:53 AM 41.0 °F - 37.9 °F 89% 29.48 in 10.0 mi Calm Calm - N/A   Overcast
3:53 AM 42.1 °F 37.7 °F 36.0 °F 79% 29.47 in 10.0 mi SE 6.9 mph - N/A   Overcast
4:53 AM 36.0 °F - 34.0 °F 93% 29.47 in 10.0 mi Calm Calm - N/A   Mostly Cloudy
5:53 AM 37.9 °F - 35.1 °F 89% 29.47 in 10.0 mi Calm Calm - 0.00 in   Overcast
6:53 AM 37.9 °F - 36.0 °F 93% 29.47 in 10.0 mi Calm Calm - 0.00 in Rain Light Rain
7:53 AM 36.0 °F - 35.1 °F 97% 29.47 in 10.0 mi Calm Calm - 0.00 in   Mostly Cloudy
8:53 AM 35.1 °F - 35.1 °F 100% 29.47 in 10.0 mi Calm Calm - N/A   Mostly Cloudy
9:53 AM 36.0 °F - 36.0 °F 100% 29.47 in 10.0 mi Calm Calm - N/A   Mostly Cloudy
10:53 AM 39.0 °F - 37.0 °F 93% 29.47 in 10.0 mi Calm Calm - N/A   Overcast
11:53 AM 41.0 °F 38.0 °F 37.9 °F 89% 29.47 in 10.0 mi ENE 4.6 mph - N/A   Overcast
12:53 PM 42.1 °F 39.2 °F 39.0 °F 89% 29.47 in 10.0 mi ENE 4.6 mph - N/A   Mostly Cloudy
1:53 PM 42.1 °F 38.4 °F 37.9 °F 85% 29.46 in 10.0 mi ENE 5.8 mph - N/A   Mostly Cloudy
2:53 PM 44.1 °F 40.8 °F 37.9 °F 79% 29.45 in 10.0 mi East 5.8 mph - N/A   Mostly Cloudy
3:12 PM 43.0 °F 39.5 °F 37.9 °F 82% 29.45 in 10.0 mi East 5.8 mph - N/A   Overcast
3:53 PM 43.0 °F 40.3 °F 39.0 °F 86% 29.44 in 9.0 mi ESE 4.6 mph - 0.00 in Rain Light Rain
4:53 PM 44.1 °F 41.5 °F 37.0 °F 76% 29.44 in 10.0 mi NE 4.6 mph - 0.00 in   Mostly Cloudy
5:53 PM 44.1 °F 40.8 °F 37.0 °F 76% 29.43 in 10.0 mi East 5.8 mph - N/A   Scattered Clouds
6:53 PM 41.0 °F - 37.0 °F 86% 29.43 in 10.0 mi Calm Calm - N/A   Mostly Cloudy
7:53 PM 37.9 °F 35.5 °F 37.0 °F 97% 29.44 in 10.0 mi WNW 3.5 mph - 0.01 in   Mostly Cloudy
8:53 PM 37.0 °F 34.5 °F 37.0 °F 100% 29.43 in 10.0 mi WNW 3.5 mph - N/A   Mostly Cloudy
9:53 PM 37.9 °F 35.5 °F 37.9 °F 100% 29.43 in 10.0 mi WSW 3.5 mph - 0.00 in Rain Light Rain
10:53 PM 37.9 °F 34.4 °F 37.9 °F 100% 29.42 in 10.0 mi WNW 4.6 mph - 0.00 in   Overcast
11:26 PM 37.9 °F 35.5 °F 37.9 °F 100% 29.41 in 10.0 mi West 3.5 mph - N/A   Overcast
11:53 PM 37.9 °F - 37.9 °F 100% 29.41 in 10.0 mi Calm Calm - N/A   Mostly Cloudy